This is the latest recevied weather packets stored in our database for station/object W1SCW. If no packets are shown the sender has not sent any weather packets the latest 10 day(s).
| Time | Temp. | Humidity | Pressure | Rain* | Wind** | Luminosity | Snow |
|---|---|---|---|---|---|---|---|
| 1777421714 | 28.89° C | 76% | 1009.3 hPa | 0 mm | - | 63 W/m² | - |
| 1777421409 | 28.89° C | 76% | 1009.3 hPa | 0 mm | - | 82 W/m² | - |
| 1777421106 | 28.89° C | 75% | 1009.4 hPa | 0 mm | - | 84 W/m² | - |
| 1777420802 | 29.44° C | 74% | 1009.2 hPa | 0 mm | - | 82 W/m² | - |
| 1777420498 | 29.44° C | 73% | 1009 hPa | 0 mm | - | 88 W/m² | - |
| 1777420195 | 29.44° C | 73% | 1009.2 hPa | 0 mm | - | 84 W/m² | - |
| 1777419890 | 29.44° C | 72% | 1009.2 hPa | 0 mm | - | 72 W/m² | - |
| 1777419588 | 30° C | 71% | 1009.2 hPa | 0 mm | - | 84 W/m² | - |
| 1777419287 | 30.56° C | 70% | 1009.1 hPa | 0 mm | - | 129 W/m² | - |
| 1777418983 | 30.56° C | 69% | 1009.1 hPa | 0 mm | - | 178 W/m² | - |
| 1777418673 | 30.56° C | 69% | 1009.1 hPa | 0 mm | - | 114 W/m² | - |
| 1777418370 | 30.56° C | 69% | 1009.3 hPa | 0 mm | - | 73 W/m² | - |
| 1777418065 | 30.56° C | 67% | 1009 hPa | 0 mm | - | 148 W/m² | - |
| 1777417762 | 31.11° C | 67% | 1009.1 hPa | 0 mm | - | 161 W/m² | - |
| 1777417457 | 30.56° C | 67% | 1009.3 hPa | 0 mm | - | 149 W/m² | - |
| 1777417154 | 31.11° C | 66% | 1009.1 hPa | 0 mm | - | 160 W/m² | - |
| 1777416849 | 31.67° C | 65% | 1009 hPa | 0 mm | - | 149 W/m² | - |
| 1777416546 | 31.67° C | 65% | 1009 hPa | 0 mm | - | 247 W/m² | - |
| 1777416242 | 31.67° C | 64% | 1009.1 hPa | 0 mm | - | 259 W/m² | - |
| 1777415940 | 31.67° C | 64% | 1009 hPa | 0 mm | - | 287 W/m² | - |
| 1777415636 | 31.67° C | 64% | 1008.9 hPa | 0 mm | - | 298 W/m² | - |
| 1777415332 | 32.22° C | 63% | 1008.8 hPa | 0 mm | - | 156 W/m² | - |
| 1777415028 | 31.67° C | 64% | 1008.8 hPa | 0 mm | - | 339 W/m² | - |
| 1777414727 | 31.67° C | 64% | 1009 hPa | 0 mm | - | 305 W/m² | - |
| 1777414424 | 31.67° C | 64% | 1008.9 hPa | 0 mm | - | 154 W/m² | - |
* Rain latest hour (hover to see other rain measurements)
** Current wind speed in m/s (hover to see current wind gust speed)